Location: Civry
(47.2902°N, 4.6156°E)
Time: 09:03:23
(UTC+00:00)

ATLAS 5 CENTAUR R/B - Pass Details

Date: 09 April 2020
Orbit: 543 x 1116 km, 63.4° (Epoch: 01 May)

Event Time Altitude Azimuth Distance (km) Brightness Sun altitude
Rises 21:44:36 0° 277° (W) 2,844 5.5 -28.8°
Reaches altitude 10° 21:47:26 10° 298° (WNW) 2,021 4.9 -29.1°
Maximum altitude 21:50:30 17° 341° (NNW) 1,678 4.5 -29.3°
Drops below altitude 10° 21:53:51 10° 22° (NNE) 2,239 4.8 -29.6°
Sets 21:57:14 0° 42° (NE) 3,293 5.5 -29.9°
